DAL1644 KAUS-KATL

Flight info

Callsign DAL1644
Flight time 1h 36m
Altitude 35000
Route ILEXY4 ZENZI LFK AEX MERDN ORRKK HOBTT3
Aircraft A321/M-SDE3FGHIRWY/LB1

Departure

Time 2026-05-07 22:08
Airport Austin Bergstrom International Airport (KAUS)

Arrival

Time 2026-05-07 23:45
Airport Hartsfield Jackson Atlanta International Airport (KATL)
Time Latitude Longitude Altitude Speed Heading
2026-05-07 21:39 30.20127 -97.66721 512 ft 0 kts
2026-05-07 21:57 30.20114 -97.66723 512 ft 4 kts
2026-05-07 21:58 30.20090 -97.66728 511 ft 4 kts 10°
2026-05-07 21:58 30.20068 -97.66738 511 ft 4 kts 60°
2026-05-07 21:58 30.20064 -97.66766 511 ft 3 kts 96°
2026-05-07 21:58 30.20064 -97.66776 511 ft 0 kts 96°
2026-05-07 22:00 30.20064 -97.66775 511 ft 0 kts 96°
2026-05-07 22:00 30.20062 -97.66750 511 ft 8 kts 96°
2026-05-07 22:01 30.20004 -97.66691 510 ft 17 kts 174°
2026-05-07 22:01 30.19880 -97.66684 507 ft 18 kts 171°
2026-05-07 22:01 30.19836 -97.66567 504 ft 17 kts 86°
2026-05-07 22:01 30.19839 -97.66426 502 ft 18 kts 89°
2026-05-07 22:02 30.19842 -97.66276 497 ft 20 kts 89°
2026-05-07 22:02 30.19844 -97.66104 491 ft 23 kts 89°
2026-05-07 22:02 30.19802 -97.65987 484 ft 13 kts 166°
2026-05-07 22:02 30.19712 -97.65983 488 ft 15 kts 179°
2026-05-07 22:03 30.19583 -97.65980 493 ft 22 kts 178°
2026-05-07 22:03 30.19414 -97.65975 502 ft 26 kts 178°
2026-05-07 22:03 30.19315 -97.65972 506 ft 17 kts 179°
2026-05-07 22:03 30.19203 -97.65970 507 ft 15 kts 179°
2026-05-07 22:04 30.19105 -97.65967 509 ft 13 kts 179°
2026-05-07 22:04 30.19009 -97.65965 511 ft 10 kts 179°
2026-05-07 22:04 30.18918 -97.65963 514 ft 16 kts 178°
2026-05-07 22:04 30.18832 -97.65960 514 ft 21 kts 178°
2026-05-07 22:05 30.18657 -97.65956 512 ft 27 kts 178°
2026-05-07 22:05 30.18487 -97.65951 516 ft 23 kts 179°
2026-05-07 22:05 30.18336 -97.65947 516 ft 21 kts 179°
2026-05-07 22:05 30.18198 -97.65944 519 ft 18 kts 179°
2026-05-07 22:06 30.18091 -97.65941 524 ft 13 kts 178°
2026-05-07 22:06 30.18015 -97.65939 526 ft 9 kts 178°
2026-05-07 22:06 30.17989 -97.65902 528 ft 6 kts 107°
2026-05-07 22:06 30.17945 -97.65850 531 ft 11 kts 152°
2026-05-07 22:07 30.17918 -97.65778 534 ft 9 kts 94°
2026-05-07 22:07 30.17954 -97.65728 531 ft 12 kts 12°
2026-05-07 22:07 30.18211 -97.65732 523 ft 78 kts 359°
2026-05-07 22:07 30.19024 -97.65757 516 ft 152 kts 358°
2026-05-07 22:08 30.20186 -97.65785 936 ft 176 kts
2026-05-07 22:08 30.21399 -97.65798 1866 ft 173 kts
2026-05-07 22:08 30.22502 -97.65339 2632 ft 168 kts 40°
2026-05-07 22:08 30.23189 -97.64231 2876 ft 182 kts 70°
2026-05-07 22:09 30.23608 -97.62753 3028 ft 204 kts 71°
2026-05-07 22:09 30.24080 -97.61111 3172 ft 229 kts 71°
2026-05-07 22:09 30.24611 -97.59275 3591 ft 248 kts 72°
2026-05-07 22:09 30.25169 -97.57355 4263 ft 255 kts 71°
2026-05-07 22:10 30.25748 -97.55378 4855 ft 265 kts 71°
2026-05-07 22:10 30.26349 -97.53325 5460 ft 272 kts 72°
2026-05-07 22:10 30.26964 -97.51224 6115 ft 278 kts 73°
2026-05-07 22:10 30.27591 -97.49088 6749 ft 283 kts 73°
2026-05-07 22:11 30.28236 -97.46896 7255 ft 292 kts 72°
2026-05-07 22:11 30.28897 -97.44653 7815 ft 297 kts 72°
2026-05-07 22:11 30.29568 -97.42368 8365 ft 303 kts 72°
2026-05-07 22:11 30.30250 -97.40036 8897 ft 309 kts 72°
2026-05-07 22:12 30.30947 -97.37650 9452 ft 316 kts 72°
2026-05-07 22:12 30.31655 -97.35219 9966 ft 322 kts 72°
2026-05-07 22:12 30.32379 -97.32743 10237 ft 338 kts 72°
2026-05-07 22:12 30.33152 -97.30089 10357 ft 357 kts 72°
2026-05-07 22:13 30.33967 -97.27291 10509 ft 375 kts 72°
2026-05-07 22:13 30.34811 -97.24403 10924 ft 382 kts 72°
2026-05-07 22:13 30.35561 -97.21437 11435 ft 387 kts 80°
2026-05-07 22:13 30.35851 -97.18337 11972 ft 389 kts 92°
2026-05-07 22:14 30.35709 -97.15207 12506 ft 391 kts 97°
2026-05-07 22:14 30.35510 -97.12049 13048 ft 396 kts 97°
2026-05-07 22:14 30.35317 -97.08859 13588 ft 400 kts 97°
2026-05-07 22:14 30.35128 -97.05624 14100 ft 404 kts 97°
2026-05-07 22:15 30.34941 -97.02359 14609 ft 408 kts 97°
2026-05-07 22:15 30.34752 -96.99073 15124 ft 411 kts 96°
2026-05-07 22:15 30.34559 -96.95766 15652 ft 414 kts 96°
2026-05-07 22:15 30.34362 -96.92428 16177 ft 417 kts 96°
2026-05-07 22:16 30.34165 -96.89070 16696 ft 420 kts 96°
2026-05-07 22:16 30.33962 -96.85689 17198 ft 423 kts 96°
2026-05-07 22:16 30.33758 -96.82316 17659 ft 427 kts 96°
2026-05-07 22:16 30.33549 -96.78867 18072 ft 432 kts 96°
2026-05-07 22:17 30.33336 -96.75392 18507 ft 436 kts 96°
2026-05-07 22:17 30.33118 -96.71859 18908 ft 439 kts 96°
2026-05-07 22:17 30.32897 -96.68321 19295 ft 443 kts 97°
2026-05-07 22:17 30.32674 -96.64752 19689 ft 446 kts 97°
2026-05-07 22:18 30.32451 -96.61165 20072 ft 449 kts 97°
2026-05-07 22:18 30.31995 -96.53910 20752 ft 455 kts 97°
2026-05-07 22:18 30.31760 -96.50251 21129 ft 458 kts 97°
2026-05-07 22:19 30.31521 -96.46563 21492 ft 461 kts 97°
2026-05-07 22:19 30.31283 -96.42856 21805 ft 465 kts 98°
2026-05-07 22:19 30.31040 -96.39099 22139 ft 469 kts 98°
2026-05-07 22:19 30.30798 -96.35334 22463 ft 472 kts 98°
2026-05-07 22:20 30.30557 -96.31571 22804 ft 475 kts 98°
2026-05-07 22:20 30.30310 -96.27744 23137 ft 478 kts 98°
2026-05-07 22:20 30.30058 -96.23897 23438 ft 481 kts 98°
2026-05-07 22:20 30.29802 -96.20026 23712 ft 483 kts 98°
2026-05-07 22:21 30.29541 -96.16142 23994 ft 486 kts 98°
2026-05-07 22:21 30.29418 -96.12228 24256 ft 491 kts 90°
2026-05-07 22:21 30.29832 -96.08279 24556 ft 495 kts 78°
2026-05-07 22:21 30.30814 -96.04453 24818 ft 498 kts 67°
2026-05-07 22:22 30.32341 -96.00853 25098 ft 498 kts 56°
2026-05-07 22:22 30.34335 -95.97580 25377 ft 498 kts 49°
2026-05-07 22:22 30.36452 -95.94402 25662 ft 500 kts 49°
2026-05-07 22:22 30.38576 -95.91193 26082 ft 503 kts 49°
2026-05-07 22:23 30.40672 -95.88007 26362 ft 505 kts 50°
2026-05-07 22:23 30.42800 -95.84765 26641 ft 507 kts 50°
2026-05-07 22:23 30.44938 -95.81506 26919 ft 509 kts 50°
2026-05-07 22:23 30.47090 -95.78231 27213 ft 511 kts 50°
2026-05-07 22:24 30.49256 -95.74938 27485 ft 513 kts 50°
2026-05-07 22:24 30.51421 -95.71642 27781 ft 516 kts 50°
2026-05-07 22:24 30.53586 -95.68340 28059 ft 517 kts 49°
2026-05-07 22:24 30.55773 -95.65005 28328 ft 519 kts 49°
2026-05-07 22:25 30.57966 -95.61661 28614 ft 521 kts 50°
2026-05-07 22:25 30.60169 -95.58300 28859 ft 523 kts 50°
2026-05-07 22:25 30.62376 -95.54929 29109 ft 525 kts 50°
2026-05-07 22:25 30.64594 -95.51538 29346 ft 527 kts 50°
2026-05-07 22:26 30.66817 -95.48133 29582 ft 529 kts 50°
2026-05-07 22:26 30.69032 -95.44739 29811 ft 531 kts 50°
2026-05-07 22:26 30.71267 -95.41312 30054 ft 533 kts 50°
2026-05-07 22:26 30.73510 -95.37871 30254 ft 535 kts 50°
2026-05-07 22:27 30.75759 -95.34417 30444 ft 537 kts 50°
2026-05-07 22:27 30.78019 -95.30946 30658 ft 538 kts 50°
2026-05-07 22:27 30.80248 -95.27515 30930 ft 538 kts 50°
2026-05-07 22:27 30.82503 -95.24040 31191 ft 538 kts 50°
2026-05-07 22:28 30.84757 -95.20562 31445 ft 539 kts 50°
2026-05-07 22:28 30.87009 -95.17087 31716 ft 540 kts 49°
2026-05-07 22:28 30.89278 -95.13588 31939 ft 541 kts 49°
2026-05-07 22:28 30.91548 -95.10085 32196 ft 541 kts 50°
2026-05-07 22:29 30.93810 -95.06583 32460 ft 541 kts 50°
2026-05-07 22:29 30.96075 -95.03067 32726 ft 542 kts 50°
2026-05-07 22:29 30.98338 -94.99553 32993 ft 542 kts 50°
2026-05-07 22:29 31.00601 -94.96041 33257 ft 542 kts 50°
2026-05-07 22:30 31.02837 -94.92567 33519 ft 542 kts 49°
2026-05-07 22:30 31.05103 -94.89047 33798 ft 542 kts 49°
2026-05-07 22:30 31.07370 -94.85528 34059 ft 542 kts 49°
2026-05-07 22:30 31.09632 -94.82016 34283 ft 542 kts 49°
2026-05-07 22:31 31.11885 -94.78484 34513 ft 543 kts 52°
2026-05-07 22:31 31.13835 -94.74692 34729 ft 546 kts 62°
2026-05-07 22:31 31.15303 -94.70605 34942 ft 547 kts 72°
2026-05-07 22:31 31.16278 -94.66317 35057 ft 547 kts 81°
2026-05-07 22:32 31.16740 -94.61932 35044 ft 542 kts 90°
2026-05-07 22:32 31.17169 -94.53161 35040 ft 542 kts 89°
2026-05-07 22:33 31.17615 -94.44366 35040 ft 542 kts 89°
2026-05-07 22:33 31.18053 -94.35569 35040 ft 542 kts 89°
2026-05-07 22:34 31.18472 -94.26775 35038 ft 542 kts 90°
2026-05-07 22:34 31.18875 -94.18037 35036 ft 542 kts 90°
2026-05-07 22:35 31.19283 -94.09234 35038 ft 543 kts 90°
2026-05-07 22:35 31.19693 -94.00423 35042 ft 543 kts 90°
2026-05-07 22:36 31.20092 -93.91607 35045 ft 543 kts 90°
2026-05-07 22:36 31.20480 -93.82787 35047 ft 543 kts 90°
2026-05-07 22:37 31.20865 -93.74030 35053 ft 543 kts 90°
2026-05-07 22:37 31.21253 -93.65232 35057 ft 543 kts 90°
2026-05-07 22:38 31.21625 -93.56429 35056 ft 542 kts 90°
2026-05-07 22:38 31.21989 -93.47624 35054 ft 542 kts 90°
2026-05-07 22:39 31.22348 -93.38842 35051 ft 541 kts 90°
2026-05-07 22:39 31.22701 -93.30046 35050 ft 541 kts 90°
2026-05-07 22:40 31.23054 -93.21254 35049 ft 541 kts 90°
2026-05-07 22:40 31.23400 -93.12529 35051 ft 541 kts 90°
2026-05-07 22:41 31.23740 -93.03734 35066 ft 541 kts 90°
2026-05-07 22:41 31.24076 -92.94945 35070 ft 541 kts 90°
2026-05-07 22:42 31.24405 -92.86143 35087 ft 541 kts 90°
2026-05-07 22:42 31.24721 -92.77356 35072 ft 542 kts 90°
2026-05-07 22:43 31.25033 -92.68568 35063 ft 541 kts 90°
2026-05-07 22:43 31.25343 -92.59768 35057 ft 542 kts 90°
2026-05-07 22:44 31.25896 -92.51030 35056 ft 544 kts 81°
2026-05-07 22:44 31.28093 -92.42582 35056 ft 544 kts 68°
2026-05-07 22:45 31.30776 -92.34275 35051 ft 545 kts 69°
2026-05-07 22:45 31.33417 -92.25975 35042 ft 545 kts 69°
2026-05-07 22:46 31.36037 -92.17719 35044 ft 545 kts 69°
2026-05-07 22:46 31.38679 -92.09407 35046 ft 545 kts 69°
2026-05-07 22:47 31.41327 -92.01082 35054 ft 545 kts 69°
2026-05-07 22:47 31.43967 -91.92760 35058 ft 545 kts 69°
2026-05-07 22:48 31.46596 -91.84418 35064 ft 546 kts 69°
2026-05-07 22:48 31.49211 -91.76080 35063 ft 546 kts 69°
2026-05-07 22:49 31.51835 -91.67724 35090 ft 547 kts 68°
2026-05-07 22:49 31.54463 -91.59345 35067 ft 548 kts 69°
2026-05-07 22:50 31.57087 -91.50939 35065 ft 549 kts 68°
2026-05-07 22:50 31.59683 -91.42592 35068 ft 549 kts 69°
2026-05-07 22:51 31.62304 -91.34169 35074 ft 550 kts 69°
2026-05-07 22:51 31.64918 -91.25723 35070 ft 550 kts 69°
2026-05-07 22:52 31.67521 -91.17270 35073 ft 550 kts 69°
2026-05-07 22:52 31.70125 -91.08832 35071 ft 549 kts 69°
2026-05-07 22:53 31.72724 -91.00386 35070 ft 549 kts 69°
2026-05-07 22:53 31.75302 -90.91979 35078 ft 550 kts 69°
2026-05-07 22:54 31.77875 -90.83535 35075 ft 549 kts 69°
2026-05-07 22:54 31.80449 -90.75082 35089 ft 549 kts 68°
2026-05-07 22:55 31.83024 -90.66620 35061 ft 549 kts 68°
2026-05-07 22:55 31.85588 -90.58153 35049 ft 550 kts 69°
2026-05-07 22:56 31.87718 -90.51101 35051 ft 550 kts 68°
2026-05-07 22:56 31.90695 -90.41237 35046 ft 550 kts 69°
2026-05-07 22:57 31.93254 -90.32736 35046 ft 550 kts 69°
2026-05-07 22:57 31.95372 -90.25677 35046 ft 550 kts 69°
2026-05-07 22:58 31.97917 -90.17174 35048 ft 550 kts 69°
2026-05-07 22:58 32.00452 -90.08654 35052 ft 551 kts 69°
2026-05-07 22:59 32.02982 -90.00131 35055 ft 551 kts 69°
2026-05-07 22:59 32.05516 -89.91599 35051 ft 551 kts 69°
2026-05-07 23:00 32.08048 -89.83073 35083 ft 551 kts 69°
2026-05-07 23:00 32.10566 -89.74533 35060 ft 551 kts 69°
2026-05-07 23:01 32.13075 -89.65978 35054 ft 552 kts 69°
2026-05-07 23:01 32.15567 -89.57471 35055 ft 552 kts 69°
2026-05-07 23:02 32.18075 -89.48902 35048 ft 552 kts 69°
2026-05-07 23:02 32.20571 -89.40333 35050 ft 552 kts 69°
2026-05-07 23:03 32.23063 -89.31757 35046 ft 552 kts 69°
2026-05-07 23:03 32.25559 -89.23176 35034 ft 552 kts 69°
2026-05-07 23:04 32.28049 -89.14594 35042 ft 552 kts 69°
2026-05-07 23:04 32.30522 -89.06007 35043 ft 552 kts 70°
2026-05-07 23:05 32.32981 -88.97392 35044 ft 552 kts 70°
2026-05-07 23:05 32.35450 -88.88789 35061 ft 553 kts 69°
2026-05-07 23:06 32.37872 -88.80150 35047 ft 554 kts 74°
2026-05-07 23:06 32.39618 -88.71265 35044 ft 555 kts 77°
2026-05-07 23:07 32.41325 -88.62356 35047 ft 555 kts 77°
2026-05-07 23:07 32.43029 -88.53506 35045 ft 555 kts 76°
2026-05-07 23:08 32.44744 -88.44591 35038 ft 556 kts 77°
2026-05-07 23:08 32.46441 -88.35660 35044 ft 556 kts 77°
2026-05-07 23:09 32.48128 -88.26732 35042 ft 556 kts 77°
2026-05-07 23:09 32.49818 -88.17786 35042 ft 556 kts 77°
2026-05-07 23:10 32.51504 -88.08851 35023 ft 556 kts 77°
2026-05-07 23:10 32.53188 -87.99899 35014 ft 556 kts 77°
2026-05-07 23:11 32.54846 -87.91000 35015 ft 556 kts 77°
2026-05-07 23:11 32.56524 -87.82047 35005 ft 556 kts 77°
2026-05-07 23:12 32.58209 -87.73087 35007 ft 556 kts 77°
2026-05-07 23:12 32.59889 -87.64133 35030 ft 556 kts 77°
2026-05-07 23:13 32.61554 -87.55165 34994 ft 557 kts 77°
2026-05-07 23:13 32.63219 -87.46169 34983 ft 558 kts 77°
2026-05-07 23:14 32.64871 -87.37180 34966 ft 558 kts 77°
2026-05-07 23:14 32.66519 -87.28164 34967 ft 559 kts 77°
2026-05-07 23:15 32.68156 -87.19202 34951 ft 559 kts 77°
2026-05-07 23:15 32.69804 -87.10172 34958 ft 559 kts 77°
2026-05-07 23:16 32.71437 -87.01146 34957 ft 559 kts 77°
2026-05-07 23:16 32.73063 -86.92110 34684 ft 559 kts 77°
2026-05-07 23:16 32.73879 -86.87585 34243 ft 559 kts 77°
2026-05-07 23:17 32.74689 -86.83073 33763 ft 560 kts 77°
2026-05-07 23:17 32.75504 -86.78535 33269 ft 560 kts 77°
2026-05-07 23:17 32.76300 -86.74080 32772 ft 559 kts 77°
2026-05-07 23:17 32.77107 -86.69556 32262 ft 559 kts 77°
2026-05-07 23:18 32.77909 -86.65047 31780 ft 557 kts 77°
2026-05-07 23:18 32.78711 -86.60536 31309 ft 555 kts 77°
2026-05-07 23:18 32.79503 -86.56065 30823 ft 552 kts 77°
2026-05-07 23:18 32.80286 -86.51623 30358 ft 548 kts 77°
2026-05-07 23:19 32.81059 -86.47209 29875 ft 544 kts 77°
2026-05-07 23:19 32.81828 -86.42817 29338 ft 539 kts 77°
2026-05-07 23:19 32.82589 -86.38465 28802 ft 535 kts 77°
2026-05-07 23:19 32.83341 -86.34157 28281 ft 531 kts 77°
2026-05-07 23:20 32.84090 -86.29868 27809 ft 527 kts 77°
2026-05-07 23:20 32.84833 -86.25620 27309 ft 523 kts 77°
2026-05-07 23:20 32.85570 -86.21393 26823 ft 519 kts 77°
2026-05-07 23:20 32.86299 -86.17204 26331 ft 516 kts 77°
2026-05-07 23:21 32.87021 -86.13036 25852 ft 512 kts 77°
2026-05-07 23:21 32.87735 -86.08907 25380 ft 508 kts 77°
2026-05-07 23:21 32.88442 -86.04806 24924 ft 504 kts 77°
2026-05-07 23:21 32.89145 -86.00738 24471 ft 500 kts 77°
2026-05-07 23:22 32.89840 -85.96700 24025 ft 496 kts 77°
2026-05-07 23:22 32.90526 -85.92692 23584 ft 493 kts 77°
2026-05-07 23:22 32.91205 -85.88709 23053 ft 489 kts 77°
2026-05-07 23:22 32.91866 -85.84811 22552 ft 485 kts 77°
2026-05-07 23:23 32.92529 -85.80892 22035 ft 482 kts 77°
2026-05-07 23:23 32.93191 -85.76991 21534 ft 478 kts 77°
2026-05-07 23:23 32.93849 -85.73128 21040 ft 475 kts 77°
2026-05-07 23:23 32.94504 -85.69288 20554 ft 472 kts 77°
2026-05-07 23:24 32.95149 -85.65471 20084 ft 469 kts 77°
2026-05-07 23:24 32.95787 -85.61685 19608 ft 466 kts 77°
2026-05-07 23:24 32.96422 -85.57913 19148 ft 463 kts 77°
2026-05-07 23:24 32.97054 -85.54156 18682 ft 461 kts 77°
2026-05-07 23:25 32.97679 -85.50420 18227 ft 459 kts 77°
2026-05-07 23:25 32.98299 -85.46702 17698 ft 457 kts 77°
2026-05-07 23:25 32.98914 -85.43006 17203 ft 454 kts 77°
2026-05-07 23:25 32.99526 -85.39341 16962 ft 446 kts 76°
2026-05-07 23:26 33.00131 -85.35735 17000 ft 444 kts 76°
2026-05-07 23:26 33.00733 -85.32133 16998 ft 444 kts 76°
2026-05-07 23:26 33.01333 -85.28524 17009 ft 444 kts 77°
2026-05-07 23:26 33.02095 -85.24972 16946 ft 441 kts 67°
2026-05-07 23:27 33.05024 -85.18778 16331 ft 419 kts 42°
2026-05-07 23:27 33.06955 -85.16268 16080 ft 414 kts 38°
2026-05-07 23:27 33.08905 -85.13764 15783 ft 411 kts 38°
2026-05-07 23:28 33.10833 -85.11265 15489 ft 408 kts 38°
2026-05-07 23:28 33.12748 -85.08775 15200 ft 405 kts 38°
2026-05-07 23:28 33.14644 -85.06303 14909 ft 403 kts 38°
2026-05-07 23:28 33.16526 -85.03849 14621 ft 399 kts 38°
2026-05-07 23:29 33.18395 -85.01414 14359 ft 396 kts 38°
2026-05-07 23:29 33.20248 -84.99005 14081 ft 393 kts 38°
2026-05-07 23:29 33.22094 -84.96604 13800 ft 391 kts 38°
2026-05-07 23:29 33.23925 -84.94217 13492 ft 388 kts 38°
2026-05-07 23:30 33.25741 -84.91849 13181 ft 385 kts 38°
2026-05-07 23:30 33.27547 -84.89492 12875 ft 383 kts 39°
2026-05-07 23:30 33.29339 -84.87155 12558 ft 380 kts 39°
2026-05-07 23:30 33.31116 -84.84842 12274 ft 377 kts 39°
2026-05-07 23:31 33.32907 -84.82556 12031 ft 373 kts 38°
2026-05-07 23:31 33.34702 -84.80398 12004 ft 357 kts 36°
2026-05-07 23:31 33.36418 -84.78401 12014 ft 341 kts 34°
2026-05-07 23:31 33.38141 -84.76433 12016 ft 336 kts 34°
2026-05-07 23:32 33.39832 -84.74522 12016 ft 335 kts 34°
2026-05-07 23:32 33.41524 -84.72606 12016 ft 335 kts 34°
2026-05-07 23:32 33.43185 -84.70701 12017 ft 335 kts 34°
2026-05-07 23:32 33.44857 -84.68765 12028 ft 332 kts 35°
2026-05-07 23:33 33.46469 -84.66873 12027 ft 316 kts 34°
2026-05-07 23:33 33.47997 -84.65067 12021 ft 301 kts 34°
2026-05-07 23:33 33.49456 -84.63345 12026 ft 291 kts 33°
2026-05-07 23:33 33.50906 -84.61656 12031 ft 289 kts 33°
2026-05-07 23:34 33.52262 -84.59842 12040 ft 299 kts 46°
2026-05-07 23:34 33.53230 -84.57604 12033 ft 308 kts 65°
2026-05-07 23:34 33.53681 -84.55067 11992 ft 315 kts 83°
2026-05-07 23:34 33.53720 -84.52457 11515 ft 318 kts 88°
2026-05-07 23:35 33.53717 -84.49790 11025 ft 313 kts 89°
2026-05-07 23:35 33.53707 -84.47209 10555 ft 307 kts 89°
2026-05-07 23:35 33.53698 -84.44669 10085 ft 302 kts 89°
2026-05-07 23:35 33.53690 -84.42205 9601 ft 297 kts 89°
2026-05-07 23:36 33.53687 -84.39754 9077 ft 290 kts 89°
2026-05-07 23:36 33.53688 -84.37372 8581 ft 282 kts 89°
2026-05-07 23:36 33.53690 -84.35052 8103 ft 276 kts 89°
2026-05-07 23:36 33.53691 -84.32760 7642 ft 273 kts 89°
2026-05-07 23:37 33.53692 -84.30499 7158 ft 270 kts 90°
2026-05-07 23:37 33.53693 -84.28266 6675 ft 266 kts 90°
2026-05-07 23:37 33.53696 -84.26067 6148 ft 261 kts 90°
2026-05-07 23:37 33.53699 -84.23907 5640 ft 257 kts 90°
2026-05-07 23:38 33.53701 -84.21778 5167 ft 253 kts 91°
2026-05-07 23:38 33.53703 -84.19691 4661 ft 249 kts 90°
2026-05-07 23:38 33.53826 -84.17648 4152 ft 244 kts 73°
2026-05-07 23:38 33.54653 -84.15973 3672 ft 234 kts 40°
2026-05-07 23:39 33.56036 -84.15118 3177 ft 220 kts
2026-05-07 23:39 33.57536 -84.15077 3001 ft 215 kts 355°
2026-05-07 23:39 33.59017 -84.15304 2986 ft 213 kts 338°
2026-05-07 23:39 33.60159 -84.16340 2996 ft 207 kts 306°
2026-05-07 23:40 33.60714 -84.17917 3005 ft 207 kts 284°
2026-05-07 23:40 33.61037 -84.19602 2997 ft 206 kts 283°
2026-05-07 23:40 33.61357 -84.21283 2998 ft 208 kts 283°
2026-05-07 23:40 33.61679 -84.22976 3003 ft 209 kts 283°
2026-05-07 23:41 33.62004 -84.24675 3004 ft 209 kts 283°
2026-05-07 23:41 33.62320 -84.26334 2996 ft 193 kts 283°
2026-05-07 23:41 33.62611 -84.27851 3009 ft 180 kts 283°
2026-05-07 23:41 33.62890 -84.29301 3015 ft 177 kts 284°
2026-05-07 23:42 33.63130 -84.30739 2927 ft 176 kts 277°
2026-05-07 23:42 33.63171 -84.32205 2614 ft 172 kts 272°
2026-05-07 23:42 33.63175 -84.33553 2375 ft 154 kts 271°
2026-05-07 23:42 33.63177 -84.34783 2170 ft 149 kts 271°
2026-05-07 23:43 33.63179 -84.36018 1980 ft 147 kts 273°
2026-05-07 23:43 33.63180 -84.37239 1795 ft 146 kts 272°
2026-05-07 23:43 33.63181 -84.38445 1607 ft 145 kts 274°
2026-05-07 23:43 33.63189 -84.39665 1403 ft 147 kts 275°
2026-05-07 23:44 33.63190 -84.40887 1221 ft 146 kts 274°
2026-05-07 23:44 33.63184 -84.42100 1034 ft 145 kts 272°
2026-05-07 23:44 33.63187 -84.43205 1009 ft 107 kts 269°
2026-05-07 23:44 33.63188 -84.43676 1007 ft 59 kts 269°
2026-05-07 23:45 33.63195 -84.44064 1005 ft 29 kts 286°
2026-05-07 23:45 33.63267 -84.44238 1006 ft 20 kts 313°
2026-05-07 23:45 33.63355 -84.44232 1006 ft 13 kts 36°
2026-05-07 23:45 33.63380 -84.44208 1006 ft 3 kts 36°
2026-05-07 23:46 33.63382 -84.44207 1006 ft 0 kts 34°
2026-05-07 23:47 33.63395 -84.44199 1006 ft 7 kts 24°
2026-05-07 23:47 33.63476 -84.44193 1007 ft 15 kts
2026-05-07 23:48 33.63575 -84.44193 1007 ft 14 kts 360°
2026-05-07 23:48 33.63656 -84.44150 1007 ft 13 kts 66°
2026-05-07 23:48 33.63692 -84.44059 1007 ft 12 kts 34°
2026-05-07 23:48 33.63755 -84.44041 1006 ft 7 kts
2026-05-07 23:49 33.63795 -84.44020 1006 ft 6 kts 59°
2026-05-07 23:49 33.63799 -84.43983 1006 ft 0 kts 87°
2026-05-07 23:49 33.63799 -84.43976 1006 ft 0 kts 89°